sat.trackr.live / text

‹ back to catalog

STARLINK-34722

NORAD 64851 · 2025-152K

PAYLOAD ACTIVE UNKNOWN

§ Identity

Operator
Country
US
Launch date
2025-07-19
Launch site
AFWTR
Launch vehicle
Mass (kg)
RCS (m²)

Purposes: comms

External: N2YO · Heavens-Above · Gunter

§ Orbital elements

Epoch: 2026-05-25T02:36:24.501024Z

Period
95.64 min
Inclination
97.4516°
Eccentricity
0.0002525
Mean motion
15.05650531 rev/d
Perigee alt
547.8 km
Apogee alt
551.3 km
Semi-major
6,927.6 km
B*
2.0850e-4
RAAN
0.4122°
Arg perigee
81.5561°
Mean anomaly
278.5953°
Rev number
4,691

§ Raw data

STARLINK-347221 64851U 25152K   26145.10861691  .00002951  00000+0  20850-3 0  99932 64851  97.4516   0.4122 0002525  81.5561 278.5953 15.05650531 46917

JSON: /api/v1/satellites/64851 · /tle

For live sub-satellite position, see the globe view (requires WebGL).

§ Visibility from observer

Set your observer location to see the next 7 days of passes ≥ 10°. The values pass through the URL so the page stays shareable.

No JS? Fill the form by hand. The geolocation button needs JavaScript.